Flag for France Weather past 2 weeks in Paris, France

Now
66 °F

Sunny.


Feels Like: 66 °F
Forecast: 54 / 68 °F
Wind: 12 mph from Northwest

Location: Villacoublay

Current Time: Sep 1, 2015 at 6:59:28 PM

Latest Report: Sep 1, 2015 at 6:30 PM


Visibility: 10 mi

Pressure: 30.07 "Hg

Humidity: 60%

Dew point: 52 °F

Location of ParisLocation

Historic Weather in Paris — Graph

°F

Paris temperature yesterday

Maximum temperature yesterday: 81 °F (at 3:30 PM)
Minimum temperature yesterday: 64 °F (at 11:00 PM)
Average temperature yesterday: 74 °F

Past Weeks' High & Low Weather Summary

 TemperatureHumidityPressure
High90 °F (Aug 30, 3:30 PM)100% (Aug 24, 7:30 AM)30.21 "Hg (Aug 24, 7:30 AM)
Low50 °F (Aug 25, 7:00 AM)30% (Aug 22, 7:30 PM)29.45 "Hg (Aug 24, 12:00 PM)
Average67 °F71%29.96 "Hg
* Reported Aug 17 5:00 PM — Sep 1 5:30 PM, Paris, Weather by CustomWeather, © 2015

Note: Actual official high and low records may vary slightly from our data, if they occured in-between our weather recording intervals... More about our weather records

Advertising

Paris weather history for previous 24 hours

 ConditionsComfort  
Time TempWeatherWind HumidityBarometerVisibility
5:30 PM
Tue, Sep 1
66 °FBroken clouds.12 mph64%30.07 "HgN/A
5:00 PM68 °FOvercast.12 mph60%30.07 "HgN/A
4:30 PM66 °FBroken clouds.10 mph60%30.07 "HgN/A
4:00 PM70 °FScattered clouds.9 mph57%30.07 "HgN/A
3:30 PM68 °FScattered clouds.10 mph60%30.07 "HgN/A
3:00 PM68 °FBroken clouds.10 mph60%30.07 "HgN/A
2:30 PM68 °FBroken clouds.10 mph64%30.07 "HgN/A
2:00 PM66 °FBroken clouds.10 mph68%30.07 "HgN/A
1:30 PM64 °FPartly sunny.12 mph78%30.04 "HgN/A
1:00 PM64 °FPartly sunny.9 mph83%30.04 "HgN/A
12:30 PM63 °FPartly sunny.10 mph88%30.04 "HgN/A
12:00 PM64 °FPartly sunny.8 mph78%30.04 "HgN/A
11:30 AM64 °FPartly sunny.9 mph78%30.01 "HgN/A
11:00 AM63 °FPartly sunny.10 mph83%30.01 "HgN/A
10:00 AM61 °FBroken clouds.8 mph88%29.98 "HgN/A
9:30 AM61 °FCloudy.7 mph94%29.95 "HgN/A
9:00 AM61 °FMostly cloudy.8 mph94%29.95 "HgN/A
8:30 AM61 °FPartly sunny.8 mph94%29.92 "HgN/A
8:00 AM59 °FMostly cloudy.9 mph94%29.92 "HgN/A
7:30 AM61 °FLow clouds.9 mph94%29.89 "HgN/A
7:00 AM59 °FMostly cloudy.10 mph94%29.89 "HgN/A
5:30 AM61 °FLight rain. Passing clouds.8 mph94%29.89 "HgN/A
5:00 AM61 °FLight rain. Low clouds.9 mph94%29.89 "HgN/A
4:30 AM61 °FLight rain. Overcast.7 mph94%29.89 "Hg4 mi
4:00 AM61 °FLight rain. Mostly cloudy.7 mph94%29.89 "Hg4 mi
3:30 AM63 °FDrizzle. Overcast.8 mph88%29.92 "HgN/A
3:00 AM63 °FLight rain. Mostly cloudy.5 mph88%29.92 "HgN/A
2:30 AM63 °FOvercast.5 mph88%29.92 "HgN/A
2:00 AM63 °FOvercast.8 mph88%29.92 "HgN/A
1:30 AM63 °FOvercast.8 mph88%29.92 "HgN/A
1:00 AM63 °FOvercast.8 mph88%29.92 "HgN/A
11:30 PM
Mon, Aug 31
64 °FMostly cloudy.10 mph88%29.92 "HgN/A
11:00 PM64 °FMostly cloudy.9 mph94%29.92 "HgN/A
10:30 PM66 °FOvercast.10 mph88%29.89 "HgN/A
10:00 PM66 °FPassing clouds.10 mph88%29.92 "HgN/A
9:30 PM68 °FPartly sunny.10 mph83%29.92 "HgN/A
9:00 PM68 °FPartly sunny.12 mph83%29.89 "HgN/A
8:30 PM70 °FScattered clouds.12 mph83%29.89 "HgN/A
8:00 PM72 °FPartly sunny.12 mph78%29.89 "HgN/A
7:30 PM73 °FScattered clouds.N/A74%29.89 "HgN/A
7:00 PM73 °FPassing clouds.N/A74%29.89 "HgN/A
6:30 PM73 °FPassing clouds.14 mph78%29.89 "HgN/A
6:00 PM79 °FPassing clouds.N/A61%29.89 "HgN/A
Weather by CustomWeather, © 2015

See weather overviewHow to use our weather pages